[[{"header":{"parameterUnit":"m.s-1","parameterCategory":1,"la1":30.2991,"la2":30.254,"lo1":-89.0895,"lo2":-89.0444,"dy":0.0017,"dx":0.0017,"nx":28,"ny":28,"refTime":"2024-08-20T03:00:00:Z","depth":0,"parameterNumber":2,"parameterNumberName":"U-component_of_WINDS"},"data":[0,0,0,0,0,0,0,0,0,0,0,0,0,0,0,0,0,0,0,0,0,0,0,0,0,0,0,0,0,0,0,0,0,0,0,0,0,0,0,0,0,0,0,0,0,0,0,0,0,0,0,0,0,0,0,0,0,0,-1.425,-1.4251,0,-1.4378,-1.4379,-1.4381,-1.434,-1.4337,-1.4335,-1.4332,-1.4467,-1.4473,-1.4479,0,0,0,0,0,0,0,0,0,0,0,0,0,-1.3973,-1.3978,-1.425,-1.4251,-1.4253,-1.4377,-1.4379,-1.4381,-1.4341,-1.4337,-1.4334,-1.4331,-1.4465,-1.4472,-1.448,0,0,0,0,0,0,0,0,0,0,0,0,0,-1.4096,-1.398,-1.4249,-1.4248,-1.4249,-1.4377,-1.4379,-1.4381,-1.4341,-1.4337,-1.4333,-1.4329,-1.4463,-1.4471,-1.4481,-1.462,0,0,-1.4509,-1.4513,0,0,0,0,0,0,0,0,-1.4089,-1.4106,-1.4246,-1.4248,-1.4249,-1.4339,-1.4331,-1.4461,-1.4342,-1.4306,-1.4332,-1.4327,-1.4428,-1.444,-1.4473,-1.4626,-1.4632,-1.451,-1.4515,-1.4519,-1.4522,0,0,0,0,0,0,0,-1.4081,-1.4101,-1.43,-1.4248,-1.425,-1.4241,-1.4254,-1.4355,-1.4389,-1.4309,-1.4306,-1.4322,-1.4428,-1.4464,-1.4476,-1.4634,-1.4509,-1.4517,-1.4523,-1.4527,-1.4906,-1.4911,0,0,0,0,0,0,-1.4071,-1.4094,-1.4296,-1.4304,-1.4157,-1.4249,-1.4264,-1.4314,-1.4387,-1.4395,-1.4325,-1.432,-1.445,-1.4465,-1.448,-1.4648,-1.4519,-1.4528,-1.4533,-1.4902,-1.4907,-1.4912,0,0,0,0,0,0,-1.4065,-1.4089,-1.4291,-1.4198,-1.4223,-1.4259,-1.4315,-1.4319,-1.4355,-1.44,-1.4406,-1.4356,-1.4448,-1.4467,-1.4585,-1.4652,-1.4532,-1.454,-1.4896,-1.4903,-1.491,-1.4983,0,0,0,0,0,0,-1.4057,-1.4087,-1.414,-1.42,-1.4228,-1.4393,-1.4319,-1.4324,-1.437,-1.4364,-1.443,-1.4437,-1.4446,-1.4571,-1.4594,-1.4662,-1.4547,-1.4891,-1.49,-1.4908,-1.4975,-1.4992,-1.5006,0,0,0,0,0,-1.4047,-1.4157,-1.4143,-1.4168,-1.4295,-1.4397,-1.4414,-1.4421,-1.4376,-1.443,-1.4458,-1.4435,-1.464,-1.4584,-1.4609,-1.4681,-1.4886,-1.4897,-1.4907,-1.4968,-1.4989,-1.5006,0,0,0,0,0,0,-1.4106,-1.4165,-1.415,-1.4282,-1.4335,-1.439,-1.4458,-1.4442,-1.451,-1.4501,-1.4508,-1.4523,-1.4644,-1.4674,-1.461,-1.4819,-1.4757,-1.4773,-1.4795,-1.4815,-1.483,-1.4821,-1.4555,0,0,0,0,0,-1.4134,-1.4211,-1.4258,-1.437,-1.4397,-1.4423,-1.4468,-1.4468,-1.4524,-1.4547,-1.4584,-1.4639,-1.4716,-1.4767,-1.484,-1.4979,-1.4992,-1.5041,-1.5056,-1.5069,-1.5083,-1.5158,-1.5179,-1.4946,-1.4946,-1.4946,0,0,-1.4194,-1.4235,-1.4284,-1.4383,-1.4424,-1.4504,-1.4443,-1.453,-1.459,-1.456,-1.4673,-1.4702,-1.4764,-1.4893,-1.4951,-1.4922,-1.515,-1.5082,-1.5091,-1.5099,-1.517,-1.5192,-1.5212,-1.4953,-1.4952,-1.495,0,0,-1.4343,-1.4382,-1.4479,-1.452,-1.4582,-1.4598,-1.4622,-1.4679,-1.4697,-1.481,-1.4788,-1.486,-1.4992,-1.5037,-1.5078,-1.5242,-1.5223,-1.5265,-1.5347,-1.542,-1.5438,-1.5455,-1.5513,-1.5534,-1.5279,-1.5279,-1.5279,0,-1.441,-1.4529,-1.4531,-1.4621,-1.4665,-1.4639,-1.4738,-1.4778,-1.4862,-1.4893,-1.4858,-1.5023,-1.5063,-1.5202,-1.5241,-1.5275,-1.5302,-1.5259,-1.5435,-1.5452,-1.5467,-1.5523,-1.5545,-1.5284,-1.5283,-1.5283,-1.5282,0,-1.4607,-1.469,-1.4761,-1.484,-1.4893,-1.4986,-1.5004,-1.5056,-1.5051,-1.5071,-1.5186,-1.5233,-1.5315,-1.5347,-1.5345,-1.5486,-1.5465,-1.5433,-1.5371,-1.5494,-1.5547,-1.5568,-1.5291,-1.5289,-1.5287,-1.5286,0,0,-1.48,-1.4877,-1.4903,-1.4938,-1.5004,-1.5068,-1.516,-1.5239,-1.5284,-1.5342,-1.5419,-1.5531,-1.55,-1.5546,-1.5548,-1.5612,-1.5738,-1.5572,-1.5573,-1.5601,-1.5896,-1.592,-1.5945,-1.5725,-1.5729,-1.5733,-1.5891,0,-1.4955,-1.5116,-1.512,-1.5267,-1.5344,-1.5319,-1.5399,-1.5448,-1.5469,-1.5537,-1.556,-1.5639,-1.5593,-1.562,-1.5682,-1.571,-1.5798,-1.5698,-1.5799,-1.5802,-1.5785,-1.5973,-1.5999,-1.6147,-1.5911,-1.5915,-1.5918,0,-1.5158,-1.522,-1.5375,-1.5428,-1.546,-1.5532,-1.5603,-1.5669,-1.5723,-1.5734,-1.5783,-1.5775,-1.5869,-1.5803,-1.5933,-1.5865,-1.5906,-1.5926,-1.5932,-1.5942,-1.5868,-1.5989,-1.6194,-1.6216,-1.595,-1.5947,-1.5945,0,-1.5283,-1.5406,-1.5514,-1.5544,-1.5609,-1.566,-1.5689,-1.5739,-1.5786,-1.5848,-1.5879,-1.5952,-1.5992,-1.6049,-1.6061,-1.6012,-1.6191,-1.6126,-1.6203,-1.6203,-1.6244,-1.6241,-1.6458,-1.6269,-1.6268,-1.6268,-1.6267,0,-1.5457,-1.5553,-1.557,-1.5637,-1.5743,-1.5747,-1.5852,-1.5878,-1.5923,-1.5994,-1.5977,-1.6045,-1.6056,-1.6126,-1.6136,-1.6242,-1.626,-1.6272,-1.6273,-1.6274,-1.6272,-1.6301,-1.6292,-1.6274,-1.6273,-1.6271,-1.627,0,-1.5615,-1.5631,-1.5747,-1.5798,-1.5812,-1.5889,-1.5932,-1.5996,-1.6013,-1.6104,-1.6125,-1.6154,-1.6235,-1.6252,-1.6349,-1.6355,-1.6482,-1.6473,-1.6463,-1.6462,-1.6538,-1.6531,-1.6783,-1.6816,-1.6604,-1.6606,-1.6608,0,-1.5726,-1.5798,-1.5856,-1.5901,-1.5933,-1.6007,-1.6053,-1.6059,-1.6108,-1.6175,-1.6231,-1.631,-1.6374,-1.6506,-1.6535,-1.6609,-1.6602,-1.6685,-1.6614,-1.6611,-1.6604,-1.66,-1.6607,-1.67,-1.6702,-1.6704,-1.6705,0,-1.5919,-1.5923,-1.599,-1.606,-1.6115,-1.6171,-1.6224,-1.6262,-1.6275,-1.6331,-1.6413,-1.6463,-1.656,-1.6639,-1.6713,-1.6744,-1.6727,-1.6727,-1.6749,-1.6751,-1.6742,-1.6747,-1.6501,-1.6722,-1.672,-1.6719,-1.6718,-1.6717,-1.6058,-1.6121,-1.617,-1.6245,-1.6285,-1.6334,-1.6396,-1.642,-1.6488,-1.6567,-1.6566,-1.6656,-1.6708,-1.6804,-1.684,-1.691,-1.6884,-1.6916,-1.6924,-1.6932,-1.6939,-1.6729,-1.6924,-1.6923,-1.6923,-1.6923,-1.6922,0,-1.6251,-1.6281,-1.6349,-1.6422,-1.6481,-1.6458,-1.6515,-1.6566,-1.6645,-1.6693,-1.6756,-1.685,-1.6926,-1.696,-1.7035,-1.7085,-1.7079,-1.7105,-1.7102,-1.7109,-1.6958,-1.6932,-1.7108,-1.7108,-1.7108,-1.7108,-1.7108,-1.7108,-1.6358,-1.6463,-1.6472,-1.6597,-1.6626,-1.6713,-1.6747,-1.6792,-1.6831,-1.6936,-1.6998,-1.702,-1.7063,-1.714,-1.7209,-1.7217,-1.7246,-1.7275,-1.728,-1.7138,-1.712,-1.7102,-1.7077,-1.7281,-1.7281,-1.7424,-1.7426,-1.7427]},{"header":{"parameterUnit":"m.s-1","parameterCategory":1,"la1":30.2991,"la2":30.254,"lo1":-89.0895,"lo2":-89.0444,"dy":0.0017,"dx":0.0017,"nx":28,"ny":28,"refTime":"2024-08-20T03:00:00:Z","depth":0,"parameterNumber":3,"parameterNumberName":"V-component_of_WINDS"},"data":[0,0,0,0,0,0,0,0,0,0,0,0,0,0,0,0,0,0,0,0,0,0,0,0,0,0,0,0,0,0,0,0,0,0,0,0,0,0,0,0,0,0,0,0,0,0,0,0,0,0,0,0,0,0,0,0,0,0,-3.0877,-3.0878,0,-3.0918,-3.0918,-3.0919,-3.087,-3.0869,-3.0867,-3.0865,-3.0904,-3.0907,-3.0909,0,0,0,0,0,0,0,0,0,0,0,0,0,-3.0754,-3.0756,-3.0877,-3.0878,-3.0878,-3.0918,-3.0918,-3.0919,-3.0871,-3.0869,-3.0866,-3.0864,-3.0903,-3.0906,-3.0909,0,0,0,0,0,0,0,0,0,0,0,0,0,-3.0802,-3.0757,-3.0877,-3.0859,-3.0858,-3.0918,-3.0919,-3.0919,-3.0871,-3.0868,-3.0866,-3.0863,-3.0902,-3.0906,-3.091,-3.0989,0,0,-3.0922,-3.0924,0,0,0,0,0,0,0,0,-3.08,-3.0807,-3.0861,-3.086,-3.0859,-3.0886,-3.0889,-3.0942,-3.0872,-3.0866,-3.0865,-3.0862,-3.09,-3.0904,-3.0918,-3.0991,-3.0992,-3.0923,-3.0925,-3.0927,-3.0928,0,0,0,0,0,0,0,-3.0796,-3.0805,-3.0893,-3.0862,-3.0861,-3.0848,-3.0852,-3.0899,-3.0898,-3.0866,-3.0863,-3.0869,-3.0899,-3.0914,-3.0918,-3.0993,-3.0923,-3.0926,-3.0929,-3.093,-3.1131,-3.1133,0,0,0,0,0,0,-3.0796,-3.0802,-3.0892,-3.0895,-3.0822,-3.0852,-3.0856,-3.088,-3.0897,-3.0897,-3.0871,-3.0866,-3.0908,-3.0913,-3.0919,-3.1011,-3.0927,-3.0931,-3.0933,-3.1128,-3.1131,-3.1134,0,0,0,0,0,0,-3.0793,-3.0804,-3.089,-3.0848,-3.0858,-3.0857,-3.0884,-3.0883,-3.0897,-3.09,-3.0899,-3.0887,-3.0906,-3.0914,-3.0972,-3.1012,-3.0932,-3.0936,-3.1124,-3.1129,-3.1133,-3.1197,0,0,0,0,0,0,-3.079,-3.0803,-3.0834,-3.0849,-3.086,-3.0943,-3.0887,-3.0885,-3.0905,-3.0899,-3.0915,-3.0915,-3.0905,-3.0966,-3.0976,-3.1016,-3.0939,-3.1121,-3.1126,-3.1131,-3.1191,-3.1203,-3.1213,0,0,0,0,0,-3.0786,-3.0851,-3.0836,-3.0847,-3.0899,-3.0946,-3.0952,-3.094,-3.0908,-3.0939,-3.094,-3.0914,-3.1006,-3.0972,-3.0983,-3.1025,-3.1118,-3.1125,-3.1131,-3.1187,-3.1201,-3.1213,0,0,0,0,0,0,-3.0841,-3.0852,-3.0836,-3.0908,-3.0927,-3.0938,-3.0976,-3.0956,-3.0983,-3.0976,-3.0959,-3.0963,-3.1025,-3.1031,-3.0993,-3.1101,-3.1057,-3.1066,-3.1095,-3.1109,-3.112,-3.1116,-3.0943,0,0,0,0,0,-3.0861,-3.09,-3.0907,-3.097,-3.098,-3.0976,-3.0996,-3.0985,-3.1003,-3.101,-3.1016,-3.1034,-3.1066,-3.1088,-3.1118,-3.1192,-3.1194,-3.1227,-3.1237,-3.1246,-3.1254,-3.1292,-3.1306,-3.1156,-3.1156,-3.1155,0,0,-3.0904,-3.0915,-3.094,-3.0981,-3.0994,-3.1033,-3.0983,-3.1026,-3.1054,-3.1017,-3.1072,-3.1077,-3.1095,-3.1161,-3.119,-3.1168,-3.1296,-3.1255,-3.1262,-3.1265,-3.13,-3.1314,-3.1327,-3.116,-3.1159,-3.1159,0,0,-3.1001,-3.1015,-3.1067,-3.1081,-3.1101,-3.1098,-3.1111,-3.1125,-3.1127,-3.1182,-3.1154,-3.1187,-3.1244,-3.1257,-3.1272,-3.1373,-3.135,-3.1384,-3.144,-3.1477,-3.1489,-3.15,-3.1534,-3.1547,-3.1391,-3.1391,-3.1392,0,-3.1052,-3.111,-3.1097,-3.1142,-3.116,-3.1128,-3.1181,-3.1194,-3.1223,-3.1236,-3.1211,-3.128,-3.1291,-3.1358,-3.1383,-3.1396,-3.1409,-3.1381,-3.1489,-3.1499,-3.1508,-3.1541,-3.1555,-3.1395,-3.1395,-3.1395,-3.1394,0,-3.117,-3.1211,-3.1251,-3.128,-3.1302,-3.1351,-3.1344,-3.1368,-3.1355,-3.1354,-3.141,-3.1421,-3.1452,-3.1467,-3.1455,-3.1533,-3.1519,-3.1492,-3.1446,-3.1527,-3.1557,-3.157,-3.1401,-3.14,-3.1398,-3.1397,0,0,-3.1303,-3.1324,-3.1339,-3.1351,-3.1371,-3.1401,-3.1447,-3.1479,-3.1499,-3.152,-3.1557,-3.1606,-3.158,-3.1597,-3.1585,-3.1618,-3.1696,-3.1587,-3.1587,-3.1605,-3.1781,-3.18,-3.1815,-3.1681,-3.1683,-3.1685,-3.1779,0,-3.14,-3.1481,-3.147,-3.1548,-3.1584,-3.1554,-3.1594,-3.161,-3.161,-3.164,-3.164,-3.1674,-3.1639,-3.1648,-3.1679,-3.168,-3.1731,-3.1673,-3.1714,-3.1715,-3.1709,-3.1832,-3.1853,-3.1941,-3.1791,-3.1793,-3.1794,0,-3.1523,-3.1549,-3.163,-3.1643,-3.1658,-3.1694,-3.1721,-3.1751,-3.1767,-3.1765,-3.1783,-3.1765,-3.181,-3.1764,-3.1825,-3.1786,-3.1802,-3.1805,-3.1808,-3.181,-3.1759,-3.1836,-3.1969,-3.1982,-3.1813,-3.1812,-3.1811,0,-3.1611,-3.1665,-3.1721,-3.1732,-3.1749,-3.1775,-3.1783,-3.1796,-3.1815,-3.1839,-3.185,-3.1879,-3.1894,-3.1915,-3.1905,-3.1873,-3.1967,-3.1921,-3.1965,-3.1965,-3.1985,-3.1984,-3.2121,-3.1998,-3.1998,-3.1997,-3.1997,0,-3.1719,-3.177,-3.176,-3.1794,-3.1849,-3.1835,-3.189,-3.1894,-3.1906,-3.1939,-3.1915,-3.1946,-3.1932,-3.1962,-3.1954,-3.2004,-3.2012,-3.201,-3.2007,-3.2012,-3.2012,-3.2021,-3.2014,-3.2001,-3.2,-3.1999,-3.1999,0,-3.1826,-3.1822,-3.188,-3.189,-3.1894,-3.1934,-3.1943,-3.1974,-3.1972,-3.2014,-3.2023,-3.202,-3.2054,-3.2046,-3.2083,-3.2078,-3.2141,-3.2131,-3.2136,-3.2133,-3.2177,-3.2172,-3.2324,-3.2342,-3.2208,-3.221,-3.2211,0,-3.1895,-3.1933,-3.1948,-3.1968,-3.1978,-3.2012,-3.2031,-3.2019,-3.204,-3.2061,-3.2089,-3.2121,-3.2145,-3.22,-3.2201,-3.2228,-3.2218,-3.2269,-3.2222,-3.2225,-3.2217,-3.2215,-3.2217,-3.2278,-3.228,-3.2281,-3.2282,0,-3.2017,-3.2013,-3.2042,-3.207,-3.2094,-3.2116,-3.2135,-3.2153,-3.2142,-3.2166,-3.22,-3.222,-3.2257,-3.2288,-3.2314,-3.232,-3.2299,-3.2297,-3.2309,-3.2313,-3.2313,-3.2312,-3.216,-3.2294,-3.2292,-3.2292,-3.2291,-3.2291,-3.2106,-3.2138,-3.2153,-3.2186,-3.2199,-3.2217,-3.2246,-3.2248,-3.2277,-3.2307,-3.2298,-3.2337,-3.235,-3.2383,-3.2392,-3.2422,-3.2402,-3.2419,-3.2423,-3.2427,-3.2432,-3.231,-3.2426,-3.2426,-3.2426,-3.2425,-3.2425,0,-3.2225,-3.2233,-3.2264,-3.2291,-3.2317,-3.2296,-3.2315,-3.2338,-3.2373,-3.2388,-3.2412,-3.2451,-3.2481,-3.2484,-3.2512,-3.2535,-3.2525,-3.2542,-3.254,-3.2541,-3.2448,-3.2435,-3.2549,-3.2549,-3.2549,-3.2549,-3.2549,-3.2549,-3.229,-3.2343,-3.234,-3.2398,-3.2406,-3.2444,-3.2457,-3.2473,-3.2485,-3.253,-3.2555,-3.2557,-3.2566,-3.2594,-3.262,-3.262,-3.2631,-3.2651,-3.2647,-3.256,-3.2548,-3.2536,-3.2524,-3.2654,-3.2654,-3.2737,-3.2738,-3.2739]}]]